MET'MAP v2.0
soon released !

Expected late october,
this new version will be
more efficient, smarter,
and hosted on a brand new
server x3 powerfull...
...and still free !


Not compatible ?
Try the mobile version !

LOG IN : | Subscribe | Disclaimer | Who is Orbifly ? |
ICAO code :

TAF - LFRL Lanveoc Poulmic - 24 Sep 2020 13:11 UTC
Data Sources :     NOAA   


- Airport Elevation : 287 ft
- No reported NOTAMs.


LFRL - Lanveoc Poulmic

Latest METAR recorded : 2020/09/24 10:30 LFRL 241030Z AUTO 23011KT 200V260 9999 SCT029/// BKN040/// BKN064/// ///CB 13/08 Q1000 TEMPO 2000 TSRA
NO TAF


MET'MAP, your aeronautical weather chart ! - Copyright ORBIFLY December 2007

Programming & Development : Alexandra Zaïnal
Co-Developer : Marc-Olivier Méhu
Technical & hardware support : Manuel Goepfert
Concept & Financing : Baudouin d'Aumeries